• In Belgium
  • List of Countries
  • For 7 days
  • Water Temperature
  • Satellite Maps
  • Weather Map
  • Weather Widgets
  • user-avatar
    Login

    Hourly Weather Konstantyna

    Today, 20 September, Wednesday

    Time Temperature Precipitation Wind Pressure Humidity
    00:00 +19°C° 0 mm 1 mps 712 mmHg 72%
    01:00 +18°C° 0 mm 1 mps 712 mmHg 73%
    02:00 +18°C° 0 mm 1 mps 712 mmHg 73%
    03:00 +18°C° 0 mm 1 mps 712 mmHg 74%
    04:00 +18°C° 0 mm 1 mps 712 mmHg 74%
    05:00 +18°C° 0 mm 1 mps 712 mmHg 74%
    06:00 +18°C° 0 mm 1 mps 713 mmHg 74%
    07:00 +19°C° 0.1 mm 1 mps 713 mmHg 69%
    08:00 +19°C° 0.1 mm 2 mps 714 mmHg 64%
    09:00 +20°C° 0.1 mm 2 mps 714 mmHg 59%
    10:00 +20°C° 0 mm 2 mps 714 mmHg 56%
    11:00 +21°C° 0 mm 2 mps 714 mmHg 52%
    12:00 +23°C° 0 mm 2 mps 714 mmHg 48%
    13:00 +23°C° 0 mm 2 mps 714 mmHg 47%
    14:00 +24°C° 0 mm 3 mps 714 mmHg 46%
    15:00 +24°C° 0 mm 3 mps 713 mmHg 45%
    16:00 +22°C° 0 mm 3 mps 713 mmHg 49%
    17:00 +21°C° 0 mm 3 mps 713 mmHg 53%
    18:00 +20°C° 0 mm 3 mps 713 mmHg 56%
    19:00 +20°C° 0 mm 2 mps 713 mmHg 58%
    20:00 +19°C° 0 mm 2 mps 713 mmHg 61%
    21:00 +18°C° 0 mm 2 mps 713 mmHg 63%
    22:00 +18°C° 0 mm 2 mps 713 mmHg 63%
    23:00 +19°C° 0 mm 1 mps 713 mmHg 64%

    Tomorrow, 21 September, Thursday

    Time Temperature Precipitation Wind Pressure Humidity
    00:00 +19°C° 0 mm 1 mps 713 mmHg 64%
    01:00 +19°C° 0 mm 1 mps 713 mmHg 65%
    02:00 +18°C° 0 mm 1 mps 712 mmHg 66%
    03:00 +18°C° 0 mm 1 mps 712 mmHg 66%
    04:00 +18°C° 0 mm 1 mps 712 mmHg 66%
    05:00 +19°C° 0 mm 1 mps 712 mmHg 65%
    06:00 +19°C° 0 mm 1 mps 712 mmHg 65%
    07:00 +20°C° 0 mm 2 mps 713 mmHg 57%
    08:00 +23°C° 0 mm 2 mps 713 mmHg 49%
    09:00 +25°C° 0 mm 3 mps 714 mmHg 40%
    10:00 +27°C° 0 mm 3 mps 713 mmHg 36%
    11:00 +28°C° 0 mm 3 mps 713 mmHg 32%
    12:00 +29°C° 0 mm 3 mps 713 mmHg 27%
    13:00 +29°C° 0 mm 3 mps 713 mmHg 27%
    14:00 +30°C° 0 mm 3 mps 712 mmHg 27%
    15:00 +30°C° 0 mm 3 mps 712 mmHg 27%
    16:00 +28°C° 0 mm 3 mps 712 mmHg 32%
    17:00 +27°C° 0 mm 3 mps 712 mmHg 37%
    18:00 +26°C° 0 mm 2 mps 711 mmHg 41%
    19:00 +25°C° 0 mm 2 mps 712 mmHg 44%
    20:00 +24°C° 0 mm 2 mps 712 mmHg 47%
    21:00 +24°C° 0 mm 1 mps 712 mmHg 49%
    22:00 +23°C° 0 mm 1 mps 712 mmHg 49%
    23:00 +23°C° 0 mm 1 mps 712 mmHg 49%

    Day after tomorrow, 22 September, Friday

    Time Temperature Precipitation Wind Pressure Humidity
    00:00 +23°C° 0 mm 1 mps 711 mmHg 49%
    01:00 +23°C° 0 mm 1 mps 711 mmHg 49%
    02:00 +21°C° 0 mm 2 mps 711 mmHg 48%
    03:00 +21°C° 0 mm 2 mps 711 mmHg 48%
    04:00 +21°C° 0 mm 2 mps 711 mmHg 48%
    05:00 +21°C° 0 mm 2 mps 711 mmHg 49%
    06:00 +21°C° 0 mm 2 mps 711 mmHg 49%
    07:00 +24°C° 0 mm 2 mps 712 mmHg 44%
    08:00 +26°C° 0 mm 2 mps 712 mmHg 38%
    09:00 +28°C° 0 mm 2 mps 713 mmHg 32%
    10:00 +29°C° 0 mm 2 mps 713 mmHg 29%
    11:00 +30°C° 0 mm 2 mps 713 mmHg 26%
    12:00 +32°C° 0 mm 2 mps 713 mmHg 23%
    13:00 +32°C° 0 mm 2 mps 713 mmHg 24%
    14:00 +32°C° 0 mm 2 mps 712 mmHg 24%
    15:00 +33°C° 0 mm 3 mps 712 mmHg 24%
    16:00 +30°C° 0 mm 3 mps 712 mmHg 29%
    17:00 +29°C° 0 mm 2 mps 712 mmHg 34%
    18:00 +28°C° 0 mm 2 mps 712 mmHg 39%
    19:00 +27°C° 0 mm 2 mps 712 mmHg 43%
    20:00 +26°C° 0 mm 1 mps 713 mmHg 46%
    21:00 +25°C° 0 mm 1 mps 713 mmHg 50%
    22:00 +25°C° 0.1 mm 1 mps 713 mmHg 51%
    23:00 +24°C° 0.1 mm 1 mps 713 mmHg 51%

    23 September, Saturday

    Time Temperature Precipitation Wind Pressure Humidity
    00:00 +24°C° 0.1 mm 1 mps 713 mmHg 52%
    01:00 +24°C° 0 mm 1 mps 712 mmHg 51%
    02:00 +24°C° 0 mm 1 mps 712 mmHg 49%
    03:00 +24°C° 0 mm 1 mps 712 mmHg 48%
    04:00 +24°C° 0 mm 1 mps 712 mmHg 47%
    05:00 +24°C° 0 mm 1 mps 712 mmHg 46%
    06:00 +24°C° 0 mm 2 mps 712 mmHg 46%
    07:00 +26°C° 0 mm 2 mps 713 mmHg 41%
    08:00 +27°C° 0 mm 2 mps 713 mmHg 37%
    09:00 +29°C° 0 mm 2 mps 714 mmHg 32%
    10:00 +29°C° 0 mm 3 mps 714 mmHg 33%
    11:00 +29°C° 0 mm 3 mps 714 mmHg 34%
    12:00 +29°C° 0 mm 4 mps 714 mmHg 36%
    13:00 +29°C° 0 mm 4 mps 714 mmHg 37%
    14:00 +28°C° 0 mm 3 mps 713 mmHg 39%
    15:00 +28°C° 0 mm 3 mps 713 mmHg 41%
    16:00 +27°C° 0 mm 3 mps 713 mmHg 44%
    17:00 +26°C° 0 mm 2 mps 713 mmHg 47%
    18:00 +25°C° 0 mm 2 mps 713 mmHg 49%
    19:00 +25°C° 0 mm 2 mps 713 mmHg 51%
    20:00 +24°C° 0 mm 2 mps 713 mmHg 53%
    21:00 +24°C° 0 mm 2 mps 713 mmHg 55%
    22:00 +24°C° 0.2 mm 2 mps 713 mmHg 56%
    23:00 +23°C° 0.2 mm 2 mps 712 mmHg 58%

    24 September, Sunday

    Time Temperature Precipitation Wind Pressure Humidity
    00:00 +23°C° 0.2 mm 1 mps 712 mmHg 59%
    01:00 +23°C° 0.1 mm 1 mps 712 mmHg 60%
    02:00 +22°C° 0.1 mm 1 mps 712 mmHg 61%
    03:00 +22°C° 0.1 mm 1 mps 711 mmHg 62%
    04:00 +22°C° 0.2 mm 1 mps 712 mmHg 63%
    05:00 +22°C° 0.2 mm 1 mps 712 mmHg 64%
    06:00 +22°C° 0.2 mm 1 mps 712 mmHg 65%
    07:00 +23°C° 0.2 mm 1 mps 713 mmHg 59%
    08:00 +25°C° 0.2 mm 2 mps 713 mmHg 53%
    09:00 +26°C° 0.2 mm 2 mps 714 mmHg 48%
    10:00 +27°C° 0.1 mm 3 mps 714 mmHg 45%
    11:00 +27°C° 0.1 mm 4 mps 714 mmHg 43%
    12:00 +28°C° 0.1 mm 4 mps 714 mmHg 41%
    13:00 +28°C° 0 mm 4 mps 714 mmHg 42%
    14:00 +28°C° 0 mm 5 mps 714 mmHg 43%
    15:00 +27°C° 0 mm 5 mps 714 mmHg 44%
    16:00 +26°C° 0 mm 5 mps 714 mmHg 51%
    17:00 +25°C° 0 mm 4 mps 714 mmHg 57%
    18:00 +22°C° 0 mm 3 mps 714 mmHg 64%
    19:00 +21°C° 0 mm 3 mps 714 mmHg 69%
    20:00 +21°C° 0 mm 2 mps 714 mmHg 74%
    21:00 +21°C° 0 mm 1 mps 714 mmHg 79%
    22:00 +21°C° 0 mm 1 mps 714 mmHg 81%
    23:00 +20°C° 0 mm 1 mps 714 mmHg 83%

    25 September, Monday

    Time Temperature Precipitation Wind Pressure Humidity
    00:00 +18°C° 0 mm 0 mps 714 mmHg 85%
    01:00 +18°C° 0 mm 0 mps 713 mmHg 86%
    02:00 +17°C° 0 mm 0 mps 713 mmHg 87%
    03:00 +17°C° 0 mm 0 mps 713 mmHg 88%
    04:00 +17°C° 0 mm 0 mps 713 mmHg 88%
    05:00 +17°C° 0 mm 0 mps 713 mmHg 87%
    06:00 +17°C° 0 mm 0 mps 713 mmHg 86%
    07:00 +18°C° 0 mm 0 mps 713 mmHg 74%
    08:00 +20°C° 0 mm 0 mps 714 mmHg 63%
    09:00 +22°C° 0 mm 0 mps 714 mmHg 51%
    10:00 +25°C° 0 mm 1 mps 714 mmHg 44%
    11:00 +26°C° 0 mm 1 mps 714 mmHg 38%
    12:00 +27°C° 0 mm 2 mps 714 mmHg 32%
    13:00 +27°C° 0 mm 2 mps 714 mmHg 33%
    14:00 +27°C° 0 mm 3 mps 713 mmHg 33%
    15:00 +27°C° 0 mm 3 mps 713 mmHg 34%
    16:00 +26°C° 0 mm 3 mps 713 mmHg 41%
    17:00 +25°C° 0 mm 3 mps 713 mmHg 48%
    18:00 +22°C° 0 mm 3 mps 713 mmHg 55%
    19:00 +23°C° 0 mm 2 mps 713 mmHg 60%
    20:00 +21°C° 0 mm 2 mps 713 mmHg 65%
    21:00 +21°C° 0 mm 1 mps 713 mmHg 70%
    22:00 +21°C° 0 mm 1 mps 713 mmHg 71%
    23:00 +20°C° 0 mm 1 mps 713 mmHg 73%
    Show more